| time (UTC) | temp C | wind direction | speed KPH | gust KPH | rain 1hr cm | rain 24hr cm | rain mn cm | humidity % | barometer mb |
| 20260507001850 | 11 | 277 | 1.6 | 3.2 | 0.00 | 0.30 | 0.30 | 59 | 1012.0 |
| 20260507001347 | 11 | 278 | 3.2 | 3.2 | 0.00 | 0.30 | 0.30 | 59 | 1012.0 |
| 20260507000843 | 11 | 287 | 3.2 | 3.2 | 0.00 | 0.30 | 0.30 | 58 | 1012.2 |
| 20260507000339 | 12 | 286 | 4.8 | 6.4 | 0.00 | 0.30 | 0.30 | 57 | 1012.0 |
| 20260506235835 | 11 | 293 | 3.2 | 3.2 | 0.00 | 0.30 | 0.30 | 56 | 1012.2 |
| 20260506235332 | 11 | 280 | 3.2 | 4.8 | 0.00 | 0.30 | 0.30 | 58 | 1012.2 |
| 20260506234828 | 11 | 281 | 4.8 | 6.4 | 0.00 | 0.30 | 0.30 | 56 | 1012.2 |
| 20260506234326 | 11 | 320 | 6.4 | 9.7 | 0.00 | 0.30 | 0.30 | 57 | 1012.2 |
| 20260506233824 | 11 | 305 | 8.0 | 9.7 | 0.00 | 0.30 | 0.30 | 55 | 1012.1 |
| 20260506233319 | 12 | 248 | 6.4 | 6.4 | 0.00 | 0.30 | 0.30 | 54 | 1012.0 |
| 20260506232817 | 12 | 299 | 8.0 | 9.7 | 0.00 | 0.30 | 0.30 | 52 | 1012.2 |
| 20260506232312 | 12 | 307 | 6.4 | 9.7 | 0.00 | 0.30 | 0.30 | 53 | 1012.3 |
| 20260506231808 | 12 | 307 | 8.0 | 11.3 | 0.00 | 0.30 | 0.30 | 53 | 1012.2 |
| 20260506231307 | 12 | 303 | 8.0 | 9.7 | 0.00 | 0.30 | 0.30 | 54 | 1012.2 |
| 20260506230804 | 11 | 307 | 6.4 | 11.3 | 0.00 | 0.30 | 0.30 | 54 | 1012.3 |
| 20260506230300 | 11 | 295 | 6.4 | 9.7 | 0.00 | 0.30 | 0.30 | 56 | 1012.2 |
| 20260506225757 | 11 | 292 | 6.4 | 9.7 | 0.00 | 0.30 | 0.30 | 57 | 1012.2 |
| 20260506225254 | 11 | 293 | 9.7 | 11.3 | 0.00 | 0.30 | 0.30 | 54 | 1012.6 |
| 20260506224750 | 11 | 290 | 6.4 | 11.3 | 0.00 | 0.30 | 0.30 | 57 | 1012.4 |
| 20260506224248 | 11 | 301 | 9.7 | 12.9 | 0.00 | 0.30 | 0.30 | 55 | 1012.5 |
| 20260506223744 | 11 | 297 | 11.3 | 12.9 | 0.00 | 0.30 | 0.30 | 55 | 1012.6 |
| 20260506223239 | 11 | 323 | 9.7 | 12.9 | 0.00 | 0.30 | 0.30 | 56 | 1012.5 |
| 20260506222737 | 11 | 314 | 6.4 | 11.3 | 0.00 | 0.30 | 0.30 | 56 | 1012.5 |
| 20260506222232 | 11 | 309 | 9.7 | 14.5 | 0.00 | 0.30 | 0.30 | 54 | 1012.7 |
| 20260506221731 | 11 | 299 | 8.0 | 11.3 | 0.00 | 0.30 | 0.30 | 57 | 1012.6 |
| 20260506221228 | 11 | 312 | 8.0 | 11.3 | 0.00 | 0.30 | 0.30 | 57 | 1012.3 |
| 20260506220725 | 11 | 283 | 9.7 | 16.1 | 0.00 | 0.30 | 0.30 | 56 | 1012.5 |
| 20260506220220 | 11 | 276 | 12.9 | 14.5 | 0.00 | 0.30 | 0.30 | 56 | 1012.2 |
| 20260506215717 | 11 | 307 | 9.7 | 12.9 | 0.00 | 0.30 | 0.30 | 54 | 1012.2 |
| 20260506215212 | 11 | 302 | 11.3 | 12.9 | 0.00 | 0.30 | 0.30 | 53 | 1012.4 |
| 20260506214709 | 11 | 291 | 11.3 | 14.5 | 0.00 | 0.30 | 0.30 | 53 | 1012.4 |
| 20260506214207 | 11 | 283 | 9.7 | 11.3 | 0.00 | 0.30 | 0.30 | 54 | 1012.4 |
| 20260506213705 | 11 | 301 | 9.7 | 14.5 | 0.00 | 0.30 | 0.30 | 57 | 1012.4 |
| 20260506213202 | 11 | 310 | 9.7 | 12.9 | 0.00 | 0.30 | 0.30 | 55 | 1012.3 |
| 20260506212659 | 11 | 329 | 9.7 | 16.1 | 0.00 | 0.30 | 0.30 | 55 | 1012.1 |
| 20260506212154 | 11 | 294 | 12.9 | 17.7 | 0.00 | 0.30 | 0.30 | 53 | 1011.9 |
| 20260506211650 | 11 | 342 | 12.9 | 16.1 | 0.00 | 0.30 | 0.30 | 54 | 1012.0 |
| 20260506211146 | 11 | 302 | 9.7 | 12.9 | 0.00 | 0.30 | 0.30 | 54 | 1012.3 |
| 20260506210643 | 11 | 318 | 11.3 | 14.5 | 0.00 | 0.30 | 0.30 | 52 | 1012.0 |
| 20260506210140 | 11 | 278 | 11.3 | 16.1 | 0.00 | 0.30 | 0.30 | 52 | 1011.8 |
| 20260506205638 | 11 | 315 | 9.7 | 12.9 | 0.00 | 0.30 | 0.30 | 53 | 1011.9 |
| 20260506205132 | 11 | 307 | 9.7 | 12.9 | 0.00 | 0.30 | 0.30 | 53 | 1011.9 |
| 20260506204630 | 11 | 291 | 11.3 | 14.5 | 0.00 | 0.30 | 0.30 | 51 | 1012.0 |
| 20260506204127 | 11 | 304 | 9.7 | 14.5 | 0.00 | 0.30 | 0.30 | 52 | 1012.1 |
| 20260506203625 | 12 | 316 | 12.9 | 17.7 | 0.00 | 0.30 | 0.30 | 51 | 1012.1 |
| 20260506203121 | 11 | 301 | 11.3 | 12.9 | 0.00 | 0.30 | 0.30 | 53 | 1012.0 |
| 20260506202619 | 11 | 300 | 12.9 | 14.5 | 0.00 | 0.30 | 0.30 | 52 | 1012.1 |
| 20260506202115 | 12 | 291 | 14.5 | 16.1 | 0.00 | 0.30 | 0.30 | 51 | 1011.9 |
| 20260506201613 | 12 | 315 | 16.1 | 20.9 | 0.00 | 0.30 | 0.30 | 52 | 1012.1 |
| 20260506201109 | 12 | 325 | 12.9 | 16.1 | 0.00 | 0.30 | 0.30 | 50 | 1012.1 |
| 20260506200606 | 12 | 323 | 9.7 | 12.9 | 0.00 | 0.30 | 0.30 | 48 | 1012.1 |
| 20260506195559 | 12 | 324 | 17.7 | 22.5 | 0.00 | 0.30 | 0.30 | 49 | 1012.0 |
| 20260506195055 | 12 | 332 | 12.9 | 14.5 | 0.00 | 0.30 | 0.30 | 51 | 1012.1 |
| 20260506194553 | 12 | 326 | 16.1 | 17.7 | 0.00 | 0.30 | 0.30 | 49 | 1011.9 |
| 20260506194049 | 12 | 315 | 9.7 | 16.1 | 0.00 | 0.30 | 0.30 | 51 | 1012.2 |
| 20260506193547 | 12 | 332 | 14.5 | 20.9 | 0.00 | 0.30 | 0.30 | 55 | 1011.9 |
| 20260506193044 | 12 | 308 | 8.0 | 12.9 | 0.00 | 0.30 | 0.30 | 51 | 1012.1 |
| 20260506192541 | 12 | 309 | 17.7 | 20.9 | 0.00 | 0.30 | 0.30 | 52 | 1012.2 |
| 20260506192037 | 12 | 276 | 6.4 | 12.9 | 0.00 | 0.30 | 0.30 | 50 | 1012.1 |
| 20260506191534 | 12 | 320 | 16.1 | 17.7 | 0.00 | 0.30 | 0.30 | 52 | 1012.1 |
| 20260506191029 | 12 | 266 | 8.0 | 11.3 | 0.00 | 0.30 | 0.30 | 50 | 1011.9 |
| 20260506190527 | 12 | 320 | 6.4 | 14.5 | 0.00 | 0.30 | 0.30 | 51 | 1012.1 |
| 20260506190024 | 12 | 326 | 6.4 | 9.7 | 0.00 | 0.30 | 0.30 | 55 | 1012.1 |
| 20260506185521 | 12 | 324 | 14.5 | 14.5 | 0.00 | 0.30 | 0.30 | 51 | 1012.1 |
| 20260506185017 | 11 | 305 | 9.7 | 14.5 | 0.00 | 0.30 | 0.30 | 52 | 1011.9 |
| 20260506184515 | 11 | 299 | 9.7 | 11.3 | 0.00 | 0.30 | 0.30 | 53 | 1012.1 |
| 20260506184012 | 11 | 322 | 9.7 | 14.5 | 0.00 | 0.30 | 0.30 | 53 | 1012.1 |
| 20260506183507 | 11 | 329 | 11.3 | 14.5 | 0.00 | 0.30 | 0.30 | 53 | 1012.3 |
| 20260506183005 | 11 | 307 | 6.4 | 9.7 | 0.00 | 0.30 | 0.30 | 55 | 1012.2 |
| 20260506182501 | 11 | 304 | 11.3 | 12.9 | 0.00 | 0.30 | 0.30 | 53 | 1012.4 |
| 20260506181959 | 11 | 307 | 11.3 | 12.9 | 0.00 | 0.30 | 0.30 | 51 | 1012.0 |
| 20260506181457 | 11 | 319 | 8.0 | 9.7 | 0.00 | 0.30 | 0.30 | 53 | 1012.0 |
| 20260506180953 | 11 | 290 | 6.4 | 11.3 | 0.00 | 0.30 | 0.30 | 53 | 1011.8 |
| 20260506180450 | 11 | 313 | 9.7 | 11.3 | 0.00 | 0.30 | 0.30 | 55 | 1012.1 |
| 20260506175947 | 11 | 303 | 11.3 | 12.9 | 0.00 | 0.30 | 0.30 | 52 | 1012.0 |
| 20260506175443 | 11 | 334 | 9.7 | 16.1 | 0.00 | 0.30 | 0.30 | 53 | 1012.0 |
| 20260506174940 | 11 | 293 | 9.7 | 14.5 | 0.00 | 0.30 | 0.30 | 55 | 1012.0 |
| 20260506174438 | 11 | 316 | 8.0 | 14.5 | 0.00 | 0.30 | 0.30 | 53 | 1011.9 |
| 20260506173934 | 11 | 313 | 14.5 | 17.7 | 0.00 | 0.30 | 0.30 | 49 | 1012.3 |
| 20260506173432 | 12 | 312 | 12.9 | 17.7 | 0.00 | 0.30 | 0.30 | 50 | 1012.1 |
| 20260506172929 | 12 | 301 | 11.3 | 14.5 | 0.00 | 0.30 | 0.30 | 55 | 1012.1 |
| 20260506172426 | 12 | 330 | 9.7 | 11.3 | 0.00 | 0.30 | 0.30 | 55 | 1012.1 |
| 20260506171922 | 12 | 305 | 8.0 | 16.1 | 0.00 | 0.30 | 0.30 | 53 | 1012.0 |
| 20260506171420 | 12 | 316 | 9.7 | 22.5 | 0.00 | 0.30 | 0.30 | 52 | 1011.9 |
| 20260506170918 | 12 | 318 | 9.7 | 14.5 | 0.00 | 0.30 | 0.30 | 54 | 1011.8 |
| 20260506170414 | 12 | 340 | 8.0 | 14.5 | 0.00 | 0.30 | 0.30 | 58 | 1011.9 |
| 20260506165913 | 12 | 321 | 9.7 | 14.5 | 0.00 | 0.30 | 0.30 | 50 | 1011.9 |
| 20260506165411 | 12 | 346 | 6.4 | 11.3 | 0.00 | 0.30 | 0.30 | 54 | 1011.9 |
| 20260506164906 | 12 | 4 | 12.9 | 24.1 | 0.00 | 0.30 | 0.30 | 54 | 1012.2 |
| 20260506164403 | 12 | 353 | 9.7 | 20.9 | 0.00 | 0.30 | 0.30 | 52 | 1012.4 |
| 20260506163902 | 12 | 318 | 11.3 | 14.5 | 0.00 | 0.30 | 0.30 | 52 | 1012.1 |
| 20260506163355 | 12 | 313 | 11.3 | 24.1 | 0.00 | 0.30 | 0.30 | 51 | 1012.3 |
| 20260506162850 | 12 | 336 | 9.7 | 16.1 | 0.00 | 0.30 | 0.30 | 51 | 1012.0 |
| 20260506162349 | 11 | 339 | 14.5 | 16.1 | 0.00 | 0.30 | 0.30 | 55 | 1012.0 |
| 20260506161846 | 11 | 320 | 12.9 | 17.7 | 0.00 | 0.30 | 0.30 | 57 | 1011.7 |
| 20260506161343 | 11 | 345 | 14.5 | 16.1 | 0.00 | 0.30 | 0.30 | 57 | 1011.7 |
| 20260506160841 | 11 | 338 | 8.0 | 17.7 | 0.00 | 0.30 | 0.30 | 56 | 1011.7 |
| 20260506160337 | 12 | 2 | 11.3 | 24.1 | 0.00 | 0.30 | 0.30 | 56 | 1012.3 |
| 20260506155836 | 12 | 321 | 9.7 | 16.1 | 0.00 | 0.30 | 0.30 | 59 | 1011.8 |
| 20260506155332 | 11 | 308 | 6.4 | 12.9 | 0.00 | 0.30 | 0.30 | 64 | 1011.9 |
| 20260506153444 | 11 | 23 | 9.7 | 12.9 | 0.00 | 0.30 | 0.30 | 61 | 1011.9 |
| 20260506152942 | 11 | 306 | 11.3 | 17.7 | 0.00 | 0.30 | 0.30 | 62 | 1011.9 |
| 20260506152439 | 11 | 320 | 8.0 | 12.9 | 0.00 | 0.30 | 0.30 | 62 | 1011.9 |
| 20260506151937 | 11 | 326 | 16.1 | 22.5 | 0.00 | 0.30 | 0.30 | 64 | 1011.6 |
| 20260506151434 | 11 | 18 | 8.0 | 12.9 | 0.00 | 0.30 | 0.30 | 67 | 1011.5 |
| 20260506150932 | 11 | 330 | 14.5 | 20.9 | 0.00 | 0.30 | 0.30 | 66 | 1011.8 |
| 20260506150427 | 11 | 338 | 9.7 | 12.9 | 0.00 | 0.30 | 0.30 | 64 | 1011.4 |
| 20260506145925 | 11 | 332 | 12.9 | 22.5 | 0.00 | 0.30 | 0.30 | 66 | 1011.5 |
| 20260506145421 | 10 | 17 | 3.2 | 11.3 | 0.00 | 0.30 | 0.30 | 64 | 1011.4 |
| 20260506144919 | 10 | 16 | 9.7 | 14.5 | 0.00 | 0.30 | 0.30 | 66 | 1011.3 |
| 20260506144415 | 10 | 25 | 11.3 | 16.1 | 0.00 | 0.30 | 0.30 | 68 | 1011.0 |
| 20260506143914 | 10 | 332 | 11.3 | 12.9 | 0.00 | 0.30 | 0.30 | 69 | 1011.1 |
| 20260506143410 | 10 | 322 | 9.7 | 12.9 | 0.00 | 0.30 | 0.30 | 70 | 1011.3 |
| 20260506142908 | 10 | 331 | 9.7 | 14.5 | 0.00 | 0.30 | 0.30 | 70 | 1011.3 |
| 20260506142406 | 10 | 338 | 9.7 | 17.7 | 0.00 | 0.30 | 0.30 | 72 | 1011.1 |
| 20260506141904 | 10 | 10 | 16.1 | 20.9 | 0.00 | 0.30 | 0.30 | 71 | 1011.2 |
| 20260506141402 | 9 | 327 | 11.3 | 20.9 | 0.00 | 0.30 | 0.30 | 73 | 1011.1 |
| 20260506140900 | 10 | 335 | 14.5 | 16.1 | 0.00 | 0.30 | 0.30 | 73 | 1011.2 |
| 20260506140356 | 9 | 303 | 9.7 | 12.9 | 0.00 | 0.30 | 0.30 | 78 | 1011.3 |
| 20260506135853 | 9 | 318 | 14.5 | 16.1 | 0.00 | 0.30 | 0.30 | 74 | 1011.4 |
| 20260506135350 | 9 | 306 | 11.3 | 20.9 | 0.00 | 0.30 | 0.30 | 75 | 1011.1 |
| 20260506134846 | 9 | 333 | 14.5 | 16.1 | 0.00 | 0.30 | 0.30 | 76 | 1010.8 |
| 20260506134343 | 8 | 315 | 9.7 | 12.9 | 0.00 | 0.30 | 0.30 | 80 | 1010.8 |
| 20260506133840 | 8 | 324 | 14.5 | 20.9 | 0.00 | 0.30 | 0.30 | 80 | 1010.7 |
| 20260506133336 | 8 | 321 | 11.3 | 17.7 | 0.00 | 0.30 | 0.30 | 80 | 1010.8 |
| 20260506132833 | 8 | 305 | 9.7 | 16.1 | 0.00 | 0.30 | 0.30 | 81 | 1010.6 |
| 20260506132330 | 8 | 321 | 11.3 | 12.9 | 0.00 | 0.30 | 0.30 | 80 | 1010.8 |
| 20260506131828 | 8 | 321 | 9.7 | 14.5 | 0.00 | 0.30 | 0.30 | 82 | 1010.7 |
| 20260506131324 | 8 | 319 | 9.7 | 12.9 | 0.00 | 0.30 | 0.30 | 82 | 1010.6 |
| 20260506130822 | 8 | 298 | 12.9 | 14.5 | 0.00 | 0.30 | 0.30 | 81 | 1010.9 |
| 20260506130318 | 8 | 311 | 9.7 | 12.9 | 0.00 | 0.30 | 0.30 | 81 | 1010.7 |
| 20260506125816 | 7 | 318 | 6.4 | 12.9 | 0.00 | 0.30 | 0.30 | 84 | 1010.8 |
| 20260506125314 | 7 | 302 | 9.7 | 14.5 | 0.00 | 0.30 | 0.30 | 82 | 1010.6 |
| 20260506124813 | 7 | 316 | 14.5 | 16.1 | 0.00 | 0.30 | 0.30 | 82 | 1010.7 |
| 20260506124309 | 7 | 323 | 6.4 | 9.7 | 0.00 | 0.30 | 0.30 | 87 | 1010.6 |
| 20260506123807 | 7 | 333 | 9.7 | 12.9 | 0.00 | 0.30 | 0.30 | 87 | 1010.4 |
| 20260506123305 | 7 | 313 | 8.0 | 9.7 | 0.00 | 0.30 | 0.30 | 88 | 1010.3 |
| 20260506122801 | 7 | 289 | 8.0 | 9.7 | 0.00 | 0.30 | 0.30 | 90 | 1010.5 |
| 20260506122259 | 7 | 320 | 9.7 | 12.9 | 0.00 | 0.30 | 0.30 | 90 | 1010.2 |
| 20260506121757 | 7 | 318 | 9.7 | 11.3 | 0.00 | 0.30 | 0.30 | 90 | 1010.0 |
| 20260506121253 | 7 | 325 | 8.0 | 9.7 | 0.00 | 0.30 | 0.30 | 91 | 1010.0 |
| 20260506120751 | 6 | 334 | 6.4 | 9.7 | 0.00 | 0.30 | 0.30 | 91 | 1010.0 |
| 20260506120248 | 6 | 322 | 6.4 | 9.7 | 0.00 | 0.30 | 0.30 | 91 | 1009.8 |
| 20260506115746 | 6 | 330 | 8.0 | 12.9 | 0.00 | 0.30 | 0.30 | 91 | 1009.8 |
| 20260506115244 | 6 | 307 | 8.0 | 11.3 | 0.00 | 0.30 | 0.30 | 92 | 1010.1 |
| 20260506114741 | 6 | 323 | 6.4 | 6.4 | 0.00 | 0.30 | 0.30 | 93 | 1009.8 |
| 20260506114239 | 6 | 336 | 8.0 | 9.7 | 0.00 | 0.30 | 0.30 | 93 | 1009.7 |
| 20260506113737 | 6 | 336 | 8.0 | 9.7 | 0.00 | 0.30 | 0.30 | 93 | 1009.5 |
| 20260506113234 | 6 | 341 | 8.0 | 9.7 | 0.00 | 0.30 | 0.30 | 93 | 1009.2 |
| 20260506112730 | 6 | 338 | 6.4 | 9.7 | 0.00 | 0.30 | 0.30 | 94 | 1009.2 |
| 20260506112228 | 6 | 338 | 3.2 | 6.4 | 0.00 | 0.30 | 0.30 | 94 | 1009.3 |
| 20260506111725 | 6 | 340 | 4.8 | 6.4 | 0.00 | 0.30 | 0.30 | 94 | 1009.1 |
| 20260506111224 | 6 | 331 | 6.4 | 6.4 | 0.00 | 0.30 | 0.30 | 94 | 1008.9 |
| 20260506110721 | 6 | 335 | 6.4 | 9.7 | 0.00 | 0.30 | 0.30 | 94 | 1008.9 |
| 20260506110218 | 6 | 333 | 8.0 | 9.7 | 0.00 | 0.30 | 0.30 | 94 | 1008.9 |
| 20260506105714 | 6 | 334 | 6.4 | 6.4 | 0.00 | 0.30 | 0.30 | 95 | 1008.9 |
| 20260506105211 | 6 | 330 | 3.2 | 4.8 | 0.00 | 0.30 | 0.30 | 95 | 1008.7 |
| 20260506104710 | 6 | 343 | 6.4 | 6.4 | 0.00 | 0.30 | 0.30 | 95 | 1008.7 |
| 20260506104207 | 6 | 8 | 3.2 | 6.4 | 0.00 | 0.30 | 0.30 | 95 | 1008.6 |
| 20260506103703 | 6 | 350 | 3.2 | 4.8 | 0.00 | 0.30 | 0.30 | 95 | 1008.2 |
| 20260506103200 | 6 | 339 | 3.2 | 4.8 | 0.00 | 0.30 | 0.30 | 95 | 1008.8 |
| 20260506102659 | 6 | 2 | 1.6 | 3.2 | 0.00 | 0.30 | 0.30 | 95 | 1008.5 |
| 20260506102156 | 6 | 323 | 1.6 | 3.2 | 0.00 | 0.30 | 0.30 | 95 | 1008.7 |
| 20260506101652 | 6 | 327 | 3.2 | 3.2 | 0.00 | 0.30 | 0.30 | 95 | 1008.6 |
| 20260506101149 | 6 | 341 | 3.2 | 4.8 | 0.00 | 0.30 | 0.30 | 95 | 1008.3 |
| 20260506100648 | 6 | 340 | 4.8 | 4.8 | 0.00 | 0.30 | 0.30 | 95 | 1008.5 |
| 20260506100145 | 6 | 353 | 3.2 | 6.4 | 0.00 | 0.30 | 0.30 | 95 | 1008.2 |
| 20260506095644 | 6 | 333 | 6.4 | 6.4 | 0.00 | 0.30 | 0.30 | 95 | 1008.5 |
| 20260506095140 | 6 | 334 | 6.4 | 6.4 | 0.00 | 0.30 | 0.30 | 95 | 1008.6 |
| 20260506094638 | 6 | 329 | 4.8 | 4.8 | 0.00 | 0.30 | 0.30 | 95 | 1008.3 |
| 20260506094135 | 6 | 354 | 3.2 | 4.8 | 0.00 | 0.30 | 0.30 | 95 | 1008.2 |
| 20260506093634 | 6 | 346 | 4.8 | 6.4 | 0.00 | 0.30 | 0.30 | 95 | 1008.0 |
| 20260506093130 | 6 | 22 | 3.2 | 6.4 | 0.00 | 0.30 | 0.30 | 95 | 1008.0 |
| 20260506092628 | 6 | 355 | 8.0 | 11.3 | 0.00 | 0.30 | 0.30 | 95 | 1007.9 |
| 20260506092125 | 6 | 342 | 3.2 | 11.3 | 0.00 | 0.30 | 0.30 | 95 | 1008.0 |
| 20260506091623 | 6 | 343 | 8.0 | 9.7 | 0.00 | 0.30 | 0.30 | 96 | 1008.0 |
| 20260506091120 | 6 | 32 | 6.4 | 9.7 | 0.00 | 0.30 | 0.30 | 96 | 1007.8 |
| 20260506090619 | 6 | 1 | 3.2 | 6.4 | 0.00 | 0.30 | 0.30 | 96 | 1008.1 |
| 20260506090114 | 6 | 353 | 6.4 | 6.4 | 0.00 | 0.30 | 0.30 | 96 | 1008.0 |
| 20260506085611 | 6 | 351 | 8.0 | 11.3 | 0.00 | 0.30 | 0.30 | 96 | 1007.8 |
| 20260506085108 | 6 | 351 | 8.0 | 9.7 | 0.00 | 0.30 | 0.30 | 96 | 1008.1 |
| 20260506084604 | 6 | 338 | 8.0 | 9.7 | 0.00 | 0.30 | 0.30 | 96 | 1008.4 |
| 20260506084101 | 6 | 326 | 4.8 | 6.4 | 0.00 | 0.30 | 0.30 | 95 | 1007.9 |
| 20260506083558 | 6 | 23 | 6.4 | 6.4 | 0.00 | 0.30 | 0.30 | 96 | 1007.6 |
| 20260506083055 | 6 | 13 | 6.4 | 6.4 | 0.00 | 0.30 | 0.30 | 96 | 1007.4 |
| 20260506082552 | 6 | 41 | 6.4 | 6.4 | 0.00 | 0.30 | 0.30 | 95 | 1007.3 |
| 20260506082048 | 6 | 51 | 1.6 | 4.8 | 0.13 | 0.30 | 0.30 | 95 | 1007.4 |
| 20260506081546 | 6 | 19 | 6.4 | 6.4 | 0.00 | 0.28 | 0.28 | 95 | 1007.5 |
| 20260506081043 | 6 | 358 | 3.2 | 6.4 | 0.00 | 0.28 | 0.28 | 95 | 1008.0 |
| 20260506080541 | 6 | 341 | 3.2 | 9.7 | 0.00 | 0.28 | 0.28 | 95 | 1008.3 |
| 20260506073524 | 6 | 19 | 4.8 | 4.8 | 0.00 | 0.25 | 0.25 | 95 | 1007.5 |
| 20260506073021 | 6 | 17 | 4.8 | 4.8 | 0.00 | 0.25 | 0.25 | 95 | 1007.7 |
| 20260506072518 | 6 | 56 | 0.0 | 6.4 | 0.00 | 0.25 | 0.25 | 95 | 1007.5 |
| 20260506072016 | 6 | 64 | 3.2 | 4.8 | 0.00 | 0.25 | 0.25 | 95 | 1007.4 |
| 20260506071514 | 6 | 32 | 3.2 | 4.8 | 0.00 | 0.25 | 0.25 | 95 | 1007.1 |
| 20260506071011 | 6 | 51 | 3.2 | 4.8 | 0.00 | 0.25 | 0.25 | 94 | 1007.0 |
| 20260506070508 | 6 | 52 | 6.4 | 11.3 | 0.00 | 0.25 | 0.25 | 94 | 1007.2 |
| 20260506062445 | 6 | 347 | 6.4 | 6.4 | 0.18 | 0.20 | 0.20 | 93 | 1008.1 |
| 20260506061941 | 6 | 29 | 8.0 | 9.7 | 0.00 | 0.18 | 0.18 | 93 | 1008.1 |
| 20260506061438 | 6 | 359 | 6.4 | 11.3 | 0.00 | 0.18 | 0.18 | 92 | 1007.8 |
| 20260506060936 | 6 | 1 | 8.0 | 9.7 | 0.13 | 0.18 | 0.18 | 92 | 1008.1 |
| 20260506060434 | 6 | 5 | 9.7 | 12.9 | 0.00 | 0.15 | 0.15 | 91 | 1008.0 |
| 20260506051406 | 6 | 20 | 11.3 | 12.9 | 0.18 | 0.15 | 0.15 | 95 | 1007.3 |
| 20260506050903 | 6 | 15 | 6.4 | 11.3 | 0.18 | 0.15 | 0.15 | 96 | 1007.5 |
| 20260506050400 | 6 | 79 | 9.7 | 17.7 | 0.13 | 0.13 | 0.13 | 96 | 1007.5 |
| 20260506044851 | 7 | 15 | 12.9 | 14.5 | 0.30 | 0.08 | 0.08 | 96 | 1007.8 |
| 20260506044349 | 7 | 37 | 9.7 | 14.5 | 0.00 | 0.03 | 0.03 | 96 | 1008.2 |
| 20260506043845 | 7 | 18 | 6.4 | 9.7 | 0.00 | 0.03 | 0.03 | 96 | 1008.1 |
| 20260506043342 | 7 | 359 | 6.4 | 11.3 | 0.00 | 0.03 | 0.03 | 96 | 1008.1 |
| 20260506042841 | 7 | 24 | 6.4 | 12.9 | 0.00 | 0.03 | 0.03 | 96 | 1008.0 |
| 20260506042340 | 7 | 359 | 9.7 | 12.9 | 0.00 | 0.03 | 0.03 | 96 | 1008.1 |
| 20260506041838 | 7 | 326 | 6.4 | 12.9 | 0.00 | 0.03 | 0.03 | 96 | 1007.9 |
| 20260506041335 | 7 | 9 | 9.7 | 12.9 | 0.00 | 0.03 | 0.03 | 96 | 1007.7 |
| 20260506040832 | 7 | 8 | 6.4 | 12.9 | 0.13 | 0.03 | 0.03 | 96 | 1007.8 |
| 20260506040329 | 7 | 21 | 8.0 | 11.3 | 0.43 | 0.03 | 0.03 | 96 | 1007.4 |
| 20260506035825 | 7 | 10 | 8.0 | 16.1 | 0.48 | 2.59 | 2.59 | 96 | 1007.5 |
| 20260506035323 | 7 | 18 | 11.3 | 14.5 | 0.48 | 2.54 | 2.54 | 96 | 1007.8 |
| 20260506034820 | 7 | 20 | 12.9 | 20.9 | 0.48 | 2.51 | 2.51 | 96 | 1007.6 |
| 20260506034317 | 7 | 357 | 14.5 | 20.9 | 0.30 | 2.46 | 2.46 | 97 | 1008.0 |
| 20260506033814 | 7 | 348 | 9.7 | 12.9 | 0.13 | 2.44 | 2.44 | 97 | 1007.7 |
| 20260506033311 | 7 | 34 | 12.9 | 16.1 | 0.18 | 2.41 | 2.41 | 97 | 1007.8 |
| 20260506032808 | 7 | 82 | 8.0 | 17.7 | 0.18 | 2.41 | 2.41 | 97 | 1007.8 |
| 20260506032306 | 8 | 359 | 8.0 | 12.9 | 0.00 | 2.39 | 2.39 | 97 | 1007.8 |
| 20260506031801 | 8 | 7 | 6.4 | 11.3 | 0.13 | 2.39 | 2.39 | 97 | 1007.9 |
| 20260506031258 | 8 | 25 | 8.0 | 11.3 | 0.18 | 2.36 | 2.36 | 97 | 1007.7 |
| 20260506030756 | 8 | 36 | 9.7 | 12.9 | 0.30 | 2.36 | 2.36 | 97 | 1007.7 |
| 20260506030254 | 8 | 345 | 8.0 | 9.7 | 0.13 | 2.34 | 2.34 | 97 | 1007.8 |
| 20260506025751 | 8 | 38 | 6.4 | 9.7 | 0.18 | 2.31 | 2.31 | 97 | 1007.8 |
| 20260506025247 | 7 | 28 | 4.8 | 11.3 | 0.18 | 2.31 | 2.31 | 97 | 1007.9 |
| 20260506024744 | 7 | 333 | 4.8 | 4.8 | 0.00 | 2.29 | 2.29 | 97 | 1008.1 |
| 20260506024241 | 7 | 21 | 6.4 | 9.7 | 0.00 | 2.29 | 2.29 | 97 | 1007.7 |
| 20260506023737 | 8 | 25 | 6.4 | 11.3 | 0.13 | 2.29 | 2.29 | 97 | 1007.8 |
| 20260506023234 | 7 | 35 | 8.0 | 9.7 | 0.00 | 2.26 | 2.26 | 97 | 1007.5 |
| 20260506022731 | 7 | 54 | 4.8 | 4.8 | 0.00 | 2.26 | 2.26 | 97 | 1007.9 |
| 20260506022229 | 7 | 55 | 1.6 | 3.2 | 0.18 | 2.26 | 2.26 | 97 | 1007.8 |
| 20260506021726 | 7 | 69 | 4.8 | 4.8 | 0.13 | 2.24 | 2.24 | 97 | 1007.7 |
| 20260506021223 | 7 | 49 | 6.4 | 6.4 | 0.30 | 2.24 | 2.24 | 97 | 1007.6 |
| 20260506020720 | 7 | 59 | 4.8 | 4.8 | 0.36 | 2.21 | 2.21 | 97 | 1008.0 |
| 20260506020218 | 7 | 61 | 1.6 | 3.2 | 0.30 | 2.18 | 2.18 | 97 | 1008.0 |
| 20260506015715 | 7 | 47 | 3.2 | 6.4 | 0.30 | 2.16 | 2.16 | 97 | 1008.0 |
| 20260506015213 | 7 | 51 | 4.8 | 6.4 | 0.18 | 2.13 | 2.13 | 97 | 1007.9 |
| 20260506014710 | 7 | 23 | 6.4 | 6.4 | 0.13 | 2.11 | 2.11 | 97 | 1008.0 |
| 20260506014205 | 7 | 57 | 0.0 | 4.8 | 0.18 | 2.08 | 2.08 | 97 | 1008.0 |
| 20260506013703 | 7 | 43 | 0.0 | 1.6 | 0.18 | 2.08 | 2.08 | 97 | 1007.8 |
| 20260506013200 | 7 | 50 | 0.0 | 1.6 | 0.13 | 2.06 | 2.06 | 97 | 1007.7 |
| 20260506012656 | 7 | 72 | 0.0 | 4.8 | 0.30 | 2.06 | 2.06 | 97 | 1007.6 |
| 20260506012153 | 7 | 20 | 6.4 | 12.9 | 0.48 | 2.03 | 2.03 | 97 | 1007.5 |
| 20260506011651 | 7 | 24 | 4.8 | 9.7 | 0.30 | 1.98 | 1.98 | 97 | 1007.5 |
| 20260506011147 | 7 | 52 | 8.0 | 12.9 | 0.43 | 1.96 | 1.96 | 97 | 1007.4 |
| 20260506010646 | 7 | 21 | 8.0 | 12.9 | 0.61 | 1.91 | 1.91 | 97 | 1007.7 |
| 20260506010142 | 7 | 351 | 8.0 | 11.3 | 0.48 | 1.85 | 1.85 | 97 | 1007.8 |
| 20260506005639 | 7 | 336 | 4.8 | 11.3 | 0.48 | 1.80 | 1.80 | 97 | 1007.5 |
| 20260506005136 | 7 | 342 | 6.4 | 11.3 | 0.43 | 1.78 | 1.78 | 97 | 1007.7 |
| 20260506004632 | 8 | 347 | 11.3 | 12.9 | 0.43 | 1.73 | 1.73 | 97 | 1007.5 |
| 20260506004130 | 8 | 6 | 8.0 | 11.3 | 0.48 | 1.70 | 1.70 | 97 | 1007.6 |
| 20260506003626 | 8 | 349 | 8.0 | 9.7 | 0.30 | 1.65 | 1.65 | 97 | 1007.3 |
| 20260506003122 | 8 | 1 | 6.4 | 12.9 | 0.13 | 1.63 | 1.63 | 97 | 1007.4 |
| 20260506002618 | 8 | 327 | 9.7 | 12.9 | 0.18 | 1.60 | 1.60 | 97 | 1007.4 |
| 20260506002114 | 8 | 21 | 6.4 | 12.9 | 0.18 | 1.60 | 1.60 | 97 | 1007.3 |